Temperature
3 3 3 3 3 3 3 2 2 1 2 2 2 2 2 2 2 2 2 2 2 2 3 3 3 3 3 3 3 2 2 2 2 2 2 2 2 2
3 3 3 3 2 2 2 2 2 1 1 1 2 2 2 2 2 2 2 2 2 2 2 2 2 2 2 2 2 2 2 2 2 2 2 1 1 1
3 2 2 2 2 2 2 2 1 1 1 1 1 1 1 1 1 1 1 1 1 1 1 2 2 2 2 2 2 1 1 1 1 1 1 1 1 1
2 2 2 2 2 2 1 1 1 1 1 1 1 1 1 1 1 1 1 1 1 1 1 1 1 1 1 1 1 1 1 1 1 0 0 0 0 0
2 2 2 1 1 1 1 1 1 1 0 0 0 0 0 0 0 0 0 0 0 0 0 0 0 0 1 1 1 1 0 0 0 -0 -0 -0 -0 -0
1 1 1 1 1 1 1 1 0 0 -0 -0 -0 -0 -0 -0 -1 -0 -0 -0 -0 -0 -0 -0 -0 -0 0 0 0 0 -0 -0 -0 -0 -1 -1 -1 -0
1 1 1 1 1 0 0 0 0 -0 -1 -1 -1 -1 -1 -1 -1 -1 -1 -1 -1 -1 -1 -1 -1 -1 -1 -1 -1 -1 -1 -1 -1 -1 -1 -1 -1 -1
0 0 0 0 0 0 0 0 -0 -0 -1 -1 -1 -1 -1 -1 -1 -1 -2 -2 -2 -2 -2 -1 -1 -1 -1 -1 -1 -1 -1 -1 -1 -1 -1 -1 -1 -1
-0 -0 -0 -0 -0 -0 -0 -0 -1 -1 -1 -1 -1 -1 -1 -2 -2 -2 -2 -2 -2 -2 -2 -2 -2 -2 -2 -2 -2 -2 -2 -2 -2 -2 -2 -2 -1 -1
-0 -0 -0 -0 -1 -1 -1 -1 -1 -1 -1 -1 -1 -1 -2 -2 -2 -2 -2 -2 -2 -2 -2 -3 -3 -3 -2 -2 -2 -2 -2 -2 -2 -2 -2 -2 -2 -2
-1 -1 -1 -1 -1 -1 -1 -1 -1 -1 -2 -2 -2 -2 -2 -2 -2 -2 -2 -3 -3 -3 -3 -3 -3 -3 -3 -3 -3 -3 -3 -3 -3 -2 -2 -2 -2 -2
-1 -1 -1 -1 -1 -1 -1 -2 -2 -2 -2 -2 -2 -2 -2 -2 -3 -3 -3 -3 -3 -3 -3 -3 -3 -4 -4 -3 -3 -3 -3 -3 -3 -3 -2 -2 -2 -2
-2 -2 -2 -2 -2 -2 -2 -2 -2 -2 -2 -2 -3 -3 -3 -3 -3 -3 -3 -3 -4 -4 -4 -4 -4 -4 -4 -4 -4 -4 -3 -3 -3 -3 -3 -3 -3 -3
-2 -2 -2 -2 -2 -2 -2 -2 -2 -3 -3 -3 -3 -3 -3 -3 -4 -4 -4 -4 -4 -4 -4 -4 -4 -4 -4 -5 -5 -4 -4 -4 -4 -3 -4 -4 -4 -3
-3 -3 -3 -3 -3 -3 -3 -3 -3 -3 -3 -3 -4 -4 -4 -4 -4 -4 -4 -4 -4 -4 -4 -4 -4 -5 -5 -5 -5 -5 -4 -4 -4 -4 -4 -4 -4 -4
-3 -3 -3 -3 -3 -3 -3 -3 -3 -3 -4 -4 -4 -4 -4 -4 -4 -4 -4 -4 -4 -4 -4 -4 -5 -5 -5 -5 -5 -5 -5 -5 -4 -4 -4 -4 -4 -4
-3 -3 -4 -4 -4 -4 -4 -4 -4 -4 -4 -4 -4 -4 -5 -5 -5 -5 -5 -5 -5 -5 -5 -5 -5 -5 -5 -5 -5 -5 -5 -5 -5 -5 -5 -5 -5 -5
-4 -4 -4 -4 -4 -4 -4 -4 -4 -4 -5 -5 -5 -5 -5 -5 -5 -5 -5 -5 -5 -5 -5 -5 -5 -5 -5 -5 -5 -5 -5 -5 -5 -5 -5 -5 -5 -5
-4 -4 -4 -4 -4 -5 -5 -5 -5 -5 -5 -5 -5 -5 -5 -5 -5 -6 -6 -6 -6 -6 -6 -6 -6 -6 -6 -6 -6 -5 -5 -5 -5 -5 -5 -5 -5 -5
-4 -4 -5 -5 -5 -5 -5 -5 -5 -5 -5 -5 -5 -5 -6 -6 -6 -6 -6 -6 -6 -6 -6 -6 -6 -6 -6 -6 -6 -6 -6 -6 -6 -6 -6 -6 -5 -5
-5 -5 -5 -5 -5 -5 -5 -5 -5 -5 -5 -6 -6 -6 -6 -6 -6 -6 -6 -6 -6 -6 -6 -6 -6 -6 -6 -6 -6 -6 -6 -6 -6 -6 -6 -6 -6 -5
-5 -5 -5 -5 -5 -5 -5 -5 -5 -6 -6 -6 -6 -6 -6 -6 -6 -6 -6 -6 -6 -6 -6 -6 -6 -6 -6 -6 -6 -6 -6 -6 -6 -6 -6 -6 -6 -6
-5 -5 -5 -5 -5 -5 -6 -6 -6 -6 -6 -6 -6 -6 -6 -6 -6 -7 -7 -7 -7 -7 -7 -7 -6 -6 -6 -6 -6 -6 -6 -6 -6 -6 -6 -6 -6 -6
Wind_Speed
5 5 4 4 4 4 4 5 4 5 6 5 4 4 5 5 5 6 6 6 8 9 9 9 9 10 11 11 11 11 11 11 11 12 13 13 13 14
4 5 5 4 3 4 5 5 5 5 6 4 5 5 5 5 6 7 7 7 8 9 9 9 10 10 10 11 11 11 11 11 11 12 13 13 13 14
4 5 5 5 4 4 4 5 5 5 7 6 5 5 7 6 6 6 7 7 7 8 9 10 10 10 11 11 11 11 11 11 11 12 13 13 14 14
5 5 5 4 5 4 4 5 5 5 6 7 6 6 7 7 7 6 6 7 7 7 9 10 10 10 11 11 11 11 11 11 11 12 12 13 14 15
5 5 6 5 5 4 5 4 4 4 5 5 6 5 6 5 6 6 6 6 6 7 8 9 9 10 10 11 10 10 10 10 11 12 12 13 14 14
5 6 6 6 6 5 5 5 4 4 4 4 5 5 5 6 5 5 5 5 5 5 6 7 8 9 10 10 10 10 9 10 11 11 12 12 13 14
5 5 5 6 6 5 5 5 4 4 4 4 5 5 5 5 5 5 5 5 5 5 5 5 6 6 6 7 8 8 9 10 11 11 12 12 12 12
5 5 5 5 5 6 6 6 5 5 5 5 5 6 6 6 5 5 5 5 5 3 5 5 5 5 5 5 6 8 9 10 10 10 11 11 11 11
4 4 4 3 4 4 4 5 5 6 7 7 7 7 6 6 6 6 6 6 6 4 5 5 5 5 5 6 7 8 9 9 10 10 10 10 11 10
4 4 4 4 3 3 4 4 4 4 5 6 6 6 6 6 6 6 6 6 6 4 4 5 5 5 6 6 6 8 8 8 9 9 10 11 11 10
3 4 4 4 4 4 3 3 4 4 3 4 5 6 7 8 6 4 4 4 5 4 3 3 4 5 5 5 5 6 7 8 9 9 10 10 10 9
2 3 4 5 5 4 4 4 4 4 3 3 3 4 4 4 6 5 5 5 4 4 2 3 4 4 3 3 4 5 6 7 8 9 9 9 10 7
2 3 3 4 5 5 4 4 4 4 4 3 3 3 3 3 3 3 4 4 5 4 3 3 4 4 4 4 5 5 5 5 6 7 8 8 8 7
3 3 2 3 4 4 3 3 4 4 3 3 3 3 3 3 3 3 4 4 5 6 5 5 4 4 4 5 5 5 5 5 6 6 6 7 7 8
2 2 3 2 2 2 2 3 3 3 3 3 3 3 3 3 3 3 3 3 4 4 5 5 4 4 4 5 5 5 5 5 5 5 5 5 5 6
1 1 2 2 2 2 2 2 2 2 3 3 3 3 3 3 3 3 3 3 3 3 3 4 4 5 5 5 6 6 5 5 5 5 5 5 5 5
1 1 1 1 1 2 2 2 2 2 2 2 3 3 3 3 3 3 3 3 3 4 3 3 3 4 5 5 5 5 5 6 5 5 5 5 5 5
1 2 2 2 2 2 2 2 2 2 2 3 3 3 3 3 3 3 3 3 3 3 3 3 3 3 3 3 4 5 5 5 5 5 5 5 6 5
2 2 2 2 2 2 2 3 3 2 2 3 3 3 3 3 3 3 3 3 3 3 3 3 3 3 4 4 2 3 4 5 6 5 4 5 6 6
2 2 3 2 2 2 3 3 3 3 3 3 3 3 3 3 3 3 3 3 3 3 3 3 3 3 4 4 4 4 5 5 5 5 5 5 5 6
2 3 3 3 3 3 3 3 3 3 3 3 3 3 3 3 3 3 3 4 4 3 4 4 3 4 4 3 4 4 4 4 5 5 5 5 5 5
3 3 3 3 3 3 3 3 3 3 3 3 3 3 3 3 3 4 3 3 3 3 4 3 3 3 3 3 4 5 5 5 5 6 6 5 4 4
3 3 3 3 3 3 3 3 4 3 3 3 3 3 3 3 3 3 3 3 3 3 3 3 3 3 3 3 4 5 6 6 4 4 4 5 7 9
Wind_Direction
229 232 238 244 243 242 241 240 248 268 277 277 283 286 290 288 286 283 285 287 286 287 290 291 294 296 298 296 297 299 301 299 299 301 302 301 299 300
231 235 242 243 248 247 238 239 244 253 268 279 285 289 293 287 287 284 283 286 278 281 285 290 293 293 295 297 297 297 300 297 294 296 299 301 302 300
234 237 244 245 243 249 242 238 244 249 258 277 284 286 288 288 290 287 284 284 281 278 282 285 289 291 292 293 293 296 298 300 295 296 298 302 303 301
235 238 243 245 243 248 249 245 247 251 254 268 278 283 284 288 292 292 287 283 280 282 280 283 287 290 293 294 293 294 295 298 296 295 297 300 303 303
234 237 242 244 244 246 250 256 258 260 256 259 272 282 288 290 293 291 286 282 278 277 278 279 283 289 293 292 292 293 292 296 295 294 296 299 302 301
236 238 242 243 244 247 248 252 256 258 256 257 265 276 284 289 287 289 288 285 281 282 282 281 282 283 287 286 289 291 293 296 293 293 297 300 301 300
241 243 245 244 248 250 251 249 249 253 256 260 264 271 275 281 281 285 287 293 286 285 289 284 285 284 286 284 284 287 292 297 296 297 300 302 303 301
248 251 251 241 242 248 251 251 251 249 251 255 260 260 270 280 288 285 285 287 287 292 293 292 291 291 296 297 302 296 295 299 301 303 306 306 305 302
242 247 255 252 249 250 250 248 248 246 248 253 257 262 270 273 278 282 280 281 283 290 294 291 296 295 300 297 301 301 298 301 305 308 311 314 313 306
240 244 251 256 253 254 261 266 270 267 257 254 257 265 270 272 272 277 282 286 284 277 280 283 294 296 299 295 296 300 301 303 309 311 312 313 311 305
248 248 250 252 250 246 255 266 280 288 277 260 265 268 271 271 269 271 269 273 281 282 275 274 288 297 294 288 292 296 301 304 309 314 315 317 319 310
256 254 247 254 258 250 247 250 265 279 285 287 275 271 272 267 265 262 261 263 274 276 269 265 283 302 295 288 307 312 308 307 309 312 315 317 323 318
248 256 256 252 258 257 259 256 262 278 277 274 276 278 281 282 284 279 272 266 269 269 272 272 277 283 282 293 300 308 312 314 312 311 311 314 319 321
254 261 262 263 262 262 270 264 272 277 265 265 269 276 283 290 290 286 280 275 271 269 270 269 268 275 281 288 294 305 310 309 311 312 316 318 320 321
260 265 275 280 288 273 256 271 274 265 262 265 271 279 285 285 287 288 285 279 283 278 268 268 269 272 271 278 288 297 304 306 308 312 315 315 316 319
248 246 263 278 276 274 279 286 280 269 264 263 268 275 281 282 282 285 286 290 293 298 292 280 271 271 272 275 278 288 296 299 306 311 312 309 312 315
258 254 255 260 267 274 280 284 276 267 268 264 264 269 276 278 283 290 288 287 281 286 297 304 295 283 274 277 278 282 291 298 303 310 308 307 310 314
251 244 248 254 261 267 271 273 272 267 265 266 263 262 268 275 283 287 286 283 285 289 293 302 308 301 279 265 257 278 290 299 306 305 300 299 306 315
236 239 246 252 257 262 266 269 271 275 270 263 262 262 264 270 276 278 282 286 289 291 295 300 297 294 294 299 292 256 286 300 305 304 302 300 302 309
237 241 247 250 254 259 263 266 270 270 264 264 263 262 260 262 269 274 274 281 287 288 292 298 296 293 288 294 298 299 289 291 302 305 308 306 300 297
252 252 249 250 256 260 261 261 262 264 263 263 262 261 260 260 266 272 274 279 281 282 287 294 300 297 291 283 284 294 306 297 288 294 306 308 309 312
255 255 254 253 256 259 261 259 260 261 261 260 262 263 262 260 264 267 268 275 280 282 289 297 306 300 290 284 291 300 308 316 308 295 288 284 299 311
256 258 257 255 253 256 258 257 258 261 262 263 264 264 263 262 266 266 270 272 275 278 286 296 305 305 299 293 294 301 307 313 317 320 318 310 294 290
Height
1493 1494 1494 1494 1494 1494 1494 1494 1495 1493 1492 1491 1491 1490 1489 1488 1487 1486 1484 1483 1482 1481 1480 1479 1477 1476 1474 1473 1472 1470 1469 1467 1466 1464 1463 1462 1461 1459
1489 1489 1490 1490 1490 1490 1490 1490 1490 1490 1489 1487 1487 1486 1485 1484 1483 1481 1480 1479 1477 1476 1475 1474 1472 1471 1470 1468 1467 1465 1464 1463 1461 1460 1459 1457 1456 1455
1485 1485 1485 1486 1486 1485 1485 1485 1486 1486 1484 1483 1483 1482 1481 1480 1478 1477 1476 1474 1473 1472 1470 1469 1468 1466 1465 1463 1462 1461 1459 1458 1457 1455 1454 1453 1451 1450
1481 1481 1481 1481 1481 1481 1481 1481 1481 1481 1480 1479 1478 1478 1477 1476 1474 1473 1472 1470 1469 1468 1466 1465 1463 1462 1460 1459 1457 1456 1455 1453 1452 1451 1449 1448 1447 1445
1477 1477 1477 1477 1477 1477 1477 1477 1477 1476 1476 1475 1474 1474 1473 1472 1470 1469 1468 1466 1465 1463 1462 1460 1459 1457 1455 1454 1452 1451 1450 1449 1447 1446 1445 1443 1442 1441
1473 1473 1473 1473 1473 1473 1473 1473 1473 1472 1472 1471 1470 1470 1469 1468 1467 1465 1464 1463 1461 1460 1458 1456 1454 1453 1451 1449 1448 1446 1445 1444 1443 1441 1440 1439 1437 1436
1468 1469 1469 1469 1469 1469 1469 1469 1469 1468 1468 1467 1466 1466 1465 1464 1463 1462 1460 1459 1457 1456 1454 1452 1451 1449 1447 1445 1444 1442 1441 1440 1438 1437 1435 1434 1433 1431
1464 1465 1465 1465 1465 1465 1465 1465 1465 1464 1464 1464 1463 1462 1461 1461 1460 1459 1457 1456 1454 1453 1451 1449 1448 1445 1443 1442 1440 1438 1437 1435 1434 1432 1431 1429 1428 1427
1460 1460 1461 1461 1461 1461 1461 1461 1460 1460 1460 1460 1459 1458 1458 1457 1457 1456 1454 1453 1451 1449 1448 1445 1444 1442 1440 1438 1436 1435 1433 1431 1430 1428 1427 1425 1424 1422
1457 1457 1457 1457 1457 1457 1457 1457 1456 1456 1456 1456 1456 1455 1455 1454 1453 1452 1451 1449 1447 1446 1445 1443 1441 1439 1437 1435 1433 1432 1430 1428 1426 1424 1423 1421 1419 1418
1453 1453 1454 1454 1454 1454 1453 1453 1452 1452 1452 1452 1452 1451 1451 1450 1449 1448 1447 1446 1444 1443 1442 1440 1438 1436 1434 1432 1430 1429 1427 1425 1423 1421 1419 1417 1415 1413
1450 1450 1451 1451 1451 1451 1450 1450 1449 1449 1449 1448 1448 1447 1446 1446 1445 1445 1444 1443 1441 1439 1438 1437 1435 1434 1431 1429 1428 1426 1424 1422 1420 1418 1416 1413 1411 1410
1447 1448 1448 1448 1448 1448 1447 1447 1446 1446 1445 1445 1444 1443 1443 1442 1441 1441 1440 1439 1438 1436 1436 1434 1432 1431 1430 1427 1425 1424 1422 1420 1417 1415 1413 1411 1409 1407
1445 1445 1445 1445 1445 1445 1444 1444 1444 1443 1442 1441 1441 1440 1439 1438 1438 1437 1436 1436 1434 1433 1432 1431 1430 1428 1427 1425 1423 1421 1419 1417 1415 1413 1411 1408 1406 1404
1442 1443 1443 1443 1442 1442 1441 1441 1441 1440 1439 1438 1437 1437 1436 1435 1434 1434 1433 1432 1431 1430 1429 1428 1427 1426 1425 1423 1420 1419 1417 1415 1413 1411 1408 1406 1404 1401
1440 1440 1440 1440 1439 1439 1438 1438 1438 1437 1436 1435 1434 1434 1433 1433 1432 1431 1430 1429 1428 1426 1426 1425 1424 1423 1422 1420 1419 1416 1415 1413 1411 1408 1406 1404 1401 1399
1437 1437 1437 1437 1436 1436 1435 1435 1434 1434 1433 1433 1432 1431 1430 1430 1429 1428 1428 1426 1425 1424 1423 1422 1421 1420 1419 1418 1416 1414 1413 1411 1409 1406 1404 1401 1399 1397
1435 1435 1434 1434 1434 1433 1432 1432 1431 1431 1430 1430 1429 1428 1428 1427 1426 1426 1425 1424 1423 1422 1421 1420 1419 1417 1417 1415 1414 1412 1410 1408 1406 1404 1402 1399 1397 1395
1432 1432 1432 1431 1431 1431 1430 1429 1429 1428 1428 1427 1426 1426 1425 1425 1424 1423 1422 1422 1421 1420 1419 1418 1417 1416 1414 1412 1411 1410 1408 1406 1404 1402 1400 1397 1395 1392
1429 1429 1429 1429 1428 1428 1427 1427 1426 1425 1425 1424 1424 1423 1423 1422 1422 1421 1420 1420 1419 1418 1417 1416 1415 1414 1413 1412 1409 1408 1406 1404 1402 1399 1397 1395 1393 1391
1427 1426 1426 1426 1425 1425 1425 1424 1423 1422 1422 1422 1421 1421 1420 1420 1419 1419 1418 1417 1417 1416 1415 1414 1413 1412 1411 1409 1408 1405 1404 1403 1400 1398 1396 1393 1391 1388
1424 1424 1423 1423 1423 1422 1422 1421 1420 1420 1420 1419 1419 1418 1418 1418 1417 1416 1416 1415 1415 1414 1413 1412 1411 1410 1409 1407 1405 1404 1402 1400 1399 1397 1395 1393 1391 1387
1421 1421 1420 1420 1420 1419 1419 1418 1418 1417 1417 1417 1416 1416 1416 1415 1415 1414 1414 1413 1413 1412 1411 1410 1409 1408 1407 1405 1404 1402 1400 1398 1397 1395 1393 1392 1390 1388